Date,TemperatureHighF,TemperatureAvgF,TemperatureLowF,DewpointHighF,DewpointAvgF,DewpointLowF,HumidityHigh,HumidityAvg,HumidityLow,PressureMaxIn,PressureMinIn,WindSpeedMaxMPH,WindSpeedAvgMPH,GustSpeedMaxMPH,PrecipitationSumIn
2013-1-1,77.7,63.1,53.0,61.0,57.3,52.0,99,83,54,30.24,30.06,10,1,15,0.00
2013-1-2,79.4,63.4,55.9,68.0,60.8,55.0,99,92,63,30.08,29.99,9,1,13,0.00
2013-1-3,68.6,62.3,56.3,65.0,61.5,54.0,98,97,86,30.20,30.05,8,0,9,0.11
2013-1-4,57.6,54.8,51.8,57.0,54.3,51.0,98,98,96,30.30,30.17,11,2,13,0.09
2013-1-5,72.5,59.5,48.8,62.0,54.5,47.0,96,84,69,30.33,30.21,6,2,12,0.00
2013-1-6,78.4,66.6,59.6,68.0,62.9,57.0,97,88,69,30.23,30.07,6,1,9,0.06
2013-1-7,67.0,59.9,52.4,59.0,55.9,49.0,97,87,75,30.25,30.15,6,2,11,0.08
2013-1-8,79.5,69.1,59.9,70.0,65.9,59.0,99,90,71,30.25,30.15,7,1,10,0.01
2013-1-9,80.0,71.8,66.8,72.0,68.8,67.0,99,91,73,30.31,30.21,7,1,10,0.00
2013-1-10,80.7,71.6,65.7,70.0,66.4,63.0,99,85,56,30.32,30.23,9,2,14,0.01
2013-1-11,81.8,70.1,61.2,70.0,64.7,60.0,99,84,60,30.27,30.16,7,1,10,0.01
2013-1-12,82.3,70.9,62.4,69.0,64.5,62.0,99,82,54,30.21,30.10,6,1,10,0.01
2013-1-13,80.1,70.0,62.1,68.0,64.1,62.0,99,83,57,30.18,30.08,7,1,9,0.00
2013-1-14,80.4,70.4,62.8,67.0,64.5,62.0,99,83,57,30.20,30.12,8,1,13,0.01
2013-1-15,80.7,71.9,63.7,69.0,65.4,63.0,98,82,56,30.16,30.06,8,1,12,0.00
2013-1-16,80.7,69.8,63.0,67.0,63.4,60.0,98,82,52,30.12,30.01,5,1,9,0.00
2013-1-17,74.6,62.2,50.0,69.0,57.7,42.0,98,85,69,30.14,29.99,15,3,21,0.01
2013-1-18,65.1,52.3,40.4,55.0,45.3,34.0,87,77,66,30.32,30.14,14,4,18,0.00
2013-1-19,72.4,60.5,53.0,61.0,55.2,50.0,95,83,66,30.32,30.17,8,2,13,0.00
2013-1-20,72.6,63.7,58.3,61.0,57.7,53.0,96,82,65,30.21,30.06,6,1,9,0.00
2013-1-21,74.3,65.4,58.8,61.0,56.2,51.0,87,73,59,30.12,30.01,7,1,8,0.00
2013-1-22,60.7,55.5,47.3,51.0,41.2,34.0,87,60,37,30.30,30.09,7,1,10,0.00
2013-1-23,65.9,54.0,42.9,44.0,37.0,32.0,88,57,29,30.39,30.30,7,1,10,0.00
2013-1-24,72.6,57.8,43.6,55.0,48.2,42.0,95,74,45,30.35,30.23,9,1,14,0.00
2013-1-25,74.2,61.3,51.9,58.0,51.8,47.0,98,74,45,30.33,30.18,5,1,10,0.00
2013-1-26,75.8,61.4,49.1,59.0,54.6,48.0,99,81,53,30.29,30.17,4,1,10,0.00
2013-1-27,77.8,64.1,52.9,63.0,58.2,52.0,99,83,54,30.33,30.24,5,1,12,0.01
2013-1-28,78.0,69.3,61.7,65.0,62.9,60.0,94,81,63,30.36,30.24,7,2,14,0.00
2013-1-29,83.2,71.6,63.6,69.0,65.5,63.0,98,83,55,30.27,30.10,8,2,14,0.01
2013-1-30,82.7,73.4,65.9,67.0,65.7,62.0,96,78,56,30.12,29.88,15,5,23,0.00
2013-1-31,70.8,56.5,45.1,66.0,41.0,26.0,95,61,25,30.26,29.88,11,3,21,0.08
2013-2-1,68.1,53.5,41.2,43.0,33.0,27.0,74,50,22,30.38,30.25,7,2,13,0.00
2013-2-2,71.2,55.2,40.8,47.0,39.5,35.0,87,60,30,30.34,30.16,5,1,11,0.00
2013-2-3,70.4,56.0,44.2,52.0,42.6,34.0,90,64,34,30.21,30.06,9,2,15,0.00
2013-2-4,67.9,55.2,43.8,46.0,40.7,34.0,97,63,29,30.15,30.06,8,1,9,0.00
2013-2-5,76.0,59.5,43.3,54.0,47.3,41.0,93,67,41,30.12,30.01,5,1,9,0.00
2013-2-6,75.5,66.1,58.8,64.0,58.7,54.0,88,77,58,30.13,30.04,5,1,8,0.00
2013-2-7,78.5,69.7,62.8,65.0,63.0,61.0,95,80,61,30.09,29.86,9,2,17,0.00
2013-2-8,78.9,67.9,58.2,65.0,60.1,56.0,94,78,49,30.09,29.88,9,2,13,0.00
2013-2-9,72.3,61.1,51.9,57.0,54.0,51.0,96,79,55,30.23,30.08,8,2,12,0.00
2013-2-10,76.9,66.2,57.2,61.0,56.8,53.0,87,73,53,30.29,30.17,9,2,15,0.00
2013-2-11,81.5,70.2,60.2,64.0,61.6,58.0,94,76,52,30.22,30.07,8,2,14,0.00
2013-2-12,83.9,72.0,63.6,69.0,64.6,62.0,98,79,51,30.11,29.93,11,3,15,0.00
2013-2-13,81.1,70.3,61.8,70.0,66.9,60.0,97,89,65,29.97,29.84,14,4,24,0.34
2013-2-14,65.4,60.3,54.3,62.0,58.0,54.0,98,92,74,30.07,29.94,7,1,8,0.26
2013-2-15,68.5,57.3,49.6,56.0,51.9,49.0,98,84,56,30.11,29.97,7,1,11,0.00
2013-2-16,65.8,55.4,46.9,52.0,43.7,24.0,97,68,40,30.15,29.93,12,3,21,0.00
2013-2-17,53.9,44.2,37.0,33.0,20.7,12.0,82,42,19,30.37,30.16,11,2,17,0.00
2013-2-18,66.7,51.0,33.5,48.0,36.0,22.0,82,59,35,30.41,30.24,8,2,13,0.00
2013-2-19,78.2,63.3,50.0,58.0,53.2,46.0,94,72,44,30.25,30.06,14,2,18,0.00
2013-2-20,73.4,63.1,55.7,60.0,54.8,49.0,95,76,57,30.16,30.03,5,1,9,0.00
2013-2-21,81.4,67.1,53.9,65.0,58.3,50.0,93,75,52,30.13,30.00,7,1,10,0.00
2013-2-22,84.7,73.4,63.8,70.0,66.4,62.0,98,81,52,30.09,29.98,9,2,11,0.00
2013-2-23,86.5,75.1,68.1,69.0,67.1,63.0,97,78,47,30.01,29.87,15,4,22,0.00
2013-2-24,77.9,70.3,65.1,71.0,67.4,63.0,97,91,76,29.97,29.88,9,2,13,0.17
2013-2-25,83.3,72.2,64.7,71.0,66.6,63.0,97,84,57,29.93,29.77,5,1,18,0.00
2013-2-26,77.9,70.2,64.6,71.0,66.3,61.0,97,88,60,29.87,29.73,14,3,26,0.67
2013-2-27,73.6,64.1,56.4,62.0,54.0,49.0,92,71,46,29.99,29.87,10,2,13,0.00
2013-2-28,73.4,60.6,51.0,54.0,49.7,44.0,92,69,36,30.02,29.89,11,2,17,0.00
2013-3-1,66.4,55.3,48.1,49.0,40.2,33.0,82,59,31,30.03,29.91,11,3,16,0.00
2013-3-2,58.1,50.2,42.3,38.0,33.7,27.0,72,55,31,30.07,29.97,14,3,23,0.00
2013-3-3,50.5,44.2,39.4,34.0,31.4,29.0,74,61,48,30.18,30.02,11,3,21,0.00
2013-3-4,65.6,49.7,34.8,41.0,31.3,23.0,92,55,25,30.26,30.13,8,1,13,0.00
2013-3-5,76.1,60.4,45.2,58.0,46.4,39.0,91,63,38,30.21,30.00,14,3,19,0.00
2013-3-6,66.4,58.2,48.3,61.0,39.9,26.0,94,55,22,30.16,29.93,12,4,25,0.02
2013-3-7,67.8,52.7,40.4,45.0,37.7,32.0,84,59,36,30.25,30.14,9,2,12,0.00
2013-3-8,74.3,56.7,41.2,47.0,42.7,39.0,97,66,28,30.25,30.12,5,1,9,0.00
2013-3-9,74.3,60.1,46.3,53.0,49.1,45.0,97,70,39,30.26,30.16,6,1,10,0.00
2013-3-10,76.9,65.1,54.1,57.0,54.9,52.0,93,72,46,30.20,30.08,10,2,17,0.00
2013-3-11,76.6,67.6,58.4,62.0,58.1,55.0,88,73,54,30.12,29.90,8,2,17,0.00
2013-3-12,72.0,65.7,57.2,66.0,61.7,55.0,96,87,77,30.04,29.86,15,2,19,0.06
2013-3-13,74.3,61.2,49.9,55.0,41.2,32.0,91,53,22,30.18,30.04,9,3,15,0.01
2013-3-14,66.1,55.2,45.1,45.0,34.9,30.0,79,49,27,30.30,30.17,8,2,13,0.00
2013-3-15,72.4,55.6,41.4,49.0,40.1,33.0,99,63,28,30.31,30.15,6,1,9,0.00
2013-3-16,79.5,62.0,47.3,53.0,45.6,42.0,95,61,27,30.20,30.04,10,2,14,0.00
2013-3-17,75.1,63.9,51.7,61.0,54.5,47.0,98,74,43,30.16,30.01,9,1,12,0.01
2013-3-18,77.8,69.9,62.3,66.0,63.5,61.0,96,81,63,30.07,29.91,9,2,17,0.03
2013-3-19,85.7,72.0,62.8,65.0,62.4,59.0,97,75,42,30.05,29.90,7,1,12,0.00
2013-3-20,74.3,64.7,57.6,67.0,61.4,56.0,97,89,72,30.00,29.80,6,1,16,0.92
2013-3-21,71.0,57.9,46.1,57.0,42.9,29.0,98,64,22,30.00,29.88,8,2,13,0.01
2013-3-22,77.3,60.8,45.9,59.0,48.6,41.0,90,68,38,30.04,29.91,8,1,12,0.00
2013-3-23,83.8,71.7,62.8,72.0,65.7,59.0,97,83,61,30.00,29.78,16,2,23,0.02
2013-3-24,79.7,72.2,67.1,73.0,68.6,64.0,97,88,75,29.85,29.62,24,6,41,0.13
2013-3-25,70.8,63.3,55.2,65.0,45.3,30.0,94,57,22,30.05,29.71,11,4,20,0.00
2013-3-26,60.1,52.2,45.1,41.0,30.4,23.0,65,45,25,30.27,30.04,10,4,18,0.00
2013-3-27,63.5,50.5,39.1,41.0,32.4,27.0,76,53,27,30.34,30.21,7,2,11,0.00
2013-3-28,72.6,55.2,38.2,44.0,36.6,28.0,94,58,22,30.32,30.18,7,1,14,0.00
2013-3-29,75.0,59.7,44.1,49.0,40.0,32.0,97,56,21,30.35,30.19,4,1,10,0.00
2013-3-30,77.5,63.8,48.5,55.0,49.3,41.0,98,63,37,30.28,30.12,8,1,11,0.00
2013-3-31,81.4,67.7,58.1,58.0,55.2,51.0,90,67,35,30.19,30.00,8,2,17,0.00
2013-4-1,84.2,72.1,62.1,65.0,62.3,57.0,94,73,46,30.04,29.93,14,3,20,0.00
2013-4-2,84.5,69.8,59.3,64.0,57.2,49.0,98,70,33,30.10,30.01,7,1,9,0.00
2013-4-3,84.0,70.3,60.7,68.0,63.3,57.0,96,80,54,30.11,29.96,8,2,13,0.15
2013-4-4,73.0,69.7,66.5,69.0,66.9,64.0,98,91,81,30.03,29.88,14,3,24,0.04
2013-4-5,76.3,67.5,56.7,67.0,62.8,55.0,95,86,62,30.02,29.81,10,3,16,0.01
2013-4-6,76.2,63.6,52.3,59.0,55.8,50.0,95,77,54,30.16,30.01,9,3,14,0.00
2013-4-7,79.5,68.7,58.0,63.0,58.5,56.0,98,73,46,30.18,30.08,7,2,12,0.00
2013-4-8,84.2,72.4,61.7,64.0,61.2,56.0,96,71,42,30.15,30.06,7,2,12,0.00
2013-4-9,84.1,72.5,63.6,68.0,62.5,56.0,98,73,47,30.18,30.09,8,2,16,0.00
2013-4-10,88.1,73.5,61.7,70.0,64.3,60.0,98,75,43,30.15,29.98,8,1,14,0.00
2013-4-11,88.1,78.7,73.0,73.0,71.0,69.0,96,79,55,30.01,29.81,11,2,25,0.13
2013-4-12,82.5,76.8,74.1,74.0,72.3,70.0,94,86,70,29.90,29.82,11,3,21,0.00
2013-4-13,87.2,75.9,65.6,71.0,65.1,54.0,97,72,41,30.00,29.88,7,1,9,0.00
2013-4-14,87.7,73.2,65.0,74.0,66.9,58.0,96,81,61,30.00,29.84,10,2,14,0.42
2013-4-15,89.9,75.8,65.4,68.0,65.1,63.0,96,72,45,30.10,29.90,7,1,13,0.00
2013-4-16,86.6,75.3,67.2,72.0,67.7,65.0,98,79,58,30.17,30.06,7,3,12,0.00
2013-4-17,83.7,73.1,65.3,70.0,66.0,62.0,99,80,51,30.17,30.05,11,2,12,0.00
2013-4-18,87.6,76.9,66.7,71.0,67.1,61.0,98,75,43,30.07,29.95,8,1,11,0.01
2013-4-19,89.2,80.0,72.0,74.0,70.2,64.0,95,74,52,30.02,29.90,11,4,24,0.00
2013-4-20,77.0,63.1,56.7,71.0,60.3,55.0,95,91,76,30.18,29.96,8,3,16,0.07
2013-4-21,77.4,67.7,58.9,71.0,64.5,56.0,98,89,76,30.17,30.05,7,2,13,0.83
2013-4-22,76.5,67.4,62.8,70.0,65.4,61.0,99,93,76,30.11,30.02,8,2,13,0.07
2013-4-23,80.5,69.4,61.1,66.0,60.7,58.0,97,77,48,30.14,30.04,7,2,14,0.01
2013-4-24,85.9,71.7,58.4,64.0,60.0,52.0,97,71,33,30.16,30.07,8,1,9,0.01
2013-4-25,88.8,75.2,62.2,68.0,62.4,50.0,98,69,26,30.21,30.11,6,1,9,0.00
2013-4-26,87.4,75.8,65.1,67.0,65.2,63.0,94,72,44,30.25,30.16,7,2,13,0.00
2013-4-27,84.8,74.2,65.2,68.0,64.8,61.0,98,75,45,30.25,30.11,8,2,13,0.00
2013-4-28,81.9,72.8,66.1,68.0,65.7,64.0,96,80,57,30.15,30.00,8,2,15,0.00
2013-4-29,85.7,75.5,66.5,69.0,65.6,63.0,94,73,51,30.04,29.91,6,2,12,0.01
2013-4-30,88.6,73.6,66.6,71.0,66.8,61.0,98,82,42,30.02,29.91,10,1,27,1.51
2013-5-1,78.3,71.2,66.4,71.0,68.7,66.0,99,92,74,30.04,29.95,6,2,12,0.05
2013-5-2,69.2,68.2,65.3,69.0,67.5,65.0,99,97,95,29.98,29.83,6,1,9,1.06
2013-5-3,78.5,71.0,67.1,70.0,68.1,66.0,99,91,74,29.84,29.73,12,2,21,0.64
2013-5-4,81.7,73.5,67.4,72.0,68.5,66.0,98,85,67,29.79,29.68,8,1,15,0.03
2013-5-5,79.3,69.0,58.6,68.0,54.5,46.0,93,63,35,29.94,29.75,10,4,23,0.00
2013-5-6,75.9,67.2,61.6,61.0,55.0,50.0,89,67,42,30.01,29.89,10,3,19,0.00
2013-5-7,79.0,66.9,54.6,62.0,57.0,53.0,97,73,49,30.06,29.96,15,2,18,0.00
2013-5-8,83.0,70.8,60.8,64.0,60.6,57.0,96,73,44,30.14,30.03,9,2,16,0.00
2013-5-9,85.4,73.0,60.9,67.0,61.9,58.0,98,72,40,30.16,30.07,6,1,11,0.00
2013-5-10,90.2,77.8,64.2,72.0,66.9,63.0,97,72,45,30.15,29.99,8,1,11,0.00
2013-5-11,89.7,76.8,68.3,74.0,69.7,66.0,95,80,54,30.06,29.97,11,2,21,0.00
2013-5-12,89.5,77.7,68.1,70.0,67.4,65.0,94,72,48,30.04,29.95,10,2,17,0.00
2013-5-13,82.5,72.9,63.6,68.0,57.1,46.0,93,62,33,30.14,30.00,8,2,15,0.00
2013-5-14,83.3,69.6,54.2,57.0,51.6,46.0,90,57,28,30.23,30.12,8,1,12,0.00
2013-5-15,85.6,72.7,59.6,62.0,58.3,53.0,96,64,34,30.23,30.09,8,1,11,0.00
2013-5-16,86.7,75.3,65.1,66.0,63.3,59.0,91,68,42,30.15,30.01,8,2,12,0.00
2013-5-17,89.3,76.7,65.0,69.0,65.6,62.0,94,71,43,30.12,30.04,7,2,13,0.00
2013-5-18,91.8,79.4,68.6,72.0,68.4,60.0,95,72,36,30.14,29.99,6,2,13,0.00
2013-5-19,89.8,77.9,69.8,75.0,71.0,65.0,91,80,59,30.10,29.98,5,2,16,0.00
2013-5-20,89.2,75.9,69.8,73.0,69.5,65.0,95,82,48,30.09,30.00,6,1,15,0.56
2013-5-21,81.0,74.3,70.0,74.0,70.5,69.0,98,88,74,30.05,29.95,8,1,12,0.03
2013-5-22,87.5,75.9,68.7,74.0,70.8,68.0,98,85,57,29.98,29.91,7,1,15,0.00
2013-5-23,92.7,79.0,70.1,74.0,71.0,66.0,98,79,49,30.00,29.90,5,1,12,0.03
2013-5-24,93.5,81.3,71.0,73.0,68.1,63.0,97,68,37,30.10,29.97,8,2,14,0.00
2013-5-25,86.5,76.4,66.8,69.0,63.9,59.0,96,68,42,30.21,30.08,8,2,11,0.00
2013-5-26,73.3,66.0,62.3,62.0,59.5,58.0,89,80,63,30.22,30.16,2,0,6,0.00
2013-5-28,87.7,78.8,67.1,71.0,69.4,65.0,92,74,55,30.15,30.09,11,3,14,0.00
2013-5-29,85.8,77.3,71.0,75.0,71.8,70.0,97,84,60,30.14,30.07,7,2,17,0.11
2013-5-30,83.6,76.2,72.7,76.0,72.5,71.0,96,88,70,30.14,30.06,17,3,20,0.24
2013-5-31,83.4,77.2,70.6,75.0,71.5,69.0,95,83,69,30.12,30.04,11,2,23,0.01
2013-6-1,85.9,77.0,71.8,76.0,72.8,70.0,96,87,71,30.09,29.98,9,2,15,0.02
2013-6-2,93.4,79.6,73.1,78.0,74.2,72.0,99,85,50,30.03,29.87,6,1,14,0.08
2013-6-3,89.7,79.9,73.0,76.0,74.3,72.0,98,84,59,30.00,29.87,12,2,15,0.03
2013-6-4,88.5,77.2,72.5,76.0,73.4,71.0,97,88,63,30.04,29.93,11,2,22,0.11
2013-6-5,86.4,75.6,72.1,77.0,72.4,69.0,98,90,61,30.03,29.92,8,1,14,0.14
2013-6-6,80.3,74.8,71.7,77.0,72.9,71.0,98,94,80,29.91,29.64,16,5,24,1.30
2013-6-7,90.9,80.1,72.1,77.0,72.7,71.0,97,80,57,29.95,29.75,11,5,23,0.02
2013-6-8,90.3,77.2,71.7,77.0,73.1,70.0,97,88,61,30.10,29.96,8,2,16,0.25
2013-6-9,91.8,77.9,70.7,77.6,74.3,69.9,98,90,62,30.12,30.03,9,1,14,0.09
2013-6-10,92.9,80.6,73.9,77.0,74.2,71.0,98,83,52,30.11,30.00,7,1,20,0.22
2013-6-11,93.1,78.3,71.3,79.0,74.8,70.0,99,90,56,30.11,30.02,7,1,22,2.34
2013-6-12,96.0,80.1,72.1,77.0,73.6,71.0,100,83,45,30.09,29.97,6,1,16,0.12
2013-6-13,94.5,83.4,74.6,78.0,74.3,71.0,97,76,50,30.02,29.87,10,2,13,0.00
2013-6-14,91.9,82.7,76.0,76.0,74.1,71.0,93,76,52,29.93,29.82,12,3,17,0.00
2013-6-15,89.2,80.0,75.2,78.0,75.1,72.0,97,85,65,30.07,29.89,5,2,13,0.37
2013-6-16,90.3,80.3,74.9,78.0,75.2,72.0,95,85,63,30.09,30.01,7,1,13,0.08
2013-6-17,94.2,82.1,73.9,79.0,75.9,72.0,99,83,51,30.07,29.95,7,1,14,0.51
2013-6-18,92.6,82.6,75.3,80.0,75.4,73.0,94,80,60,30.05,29.93,9,1,14,0.16
2013-6-19,90.2,82.8,76.9,78.0,75.7,72.0,93,80,56,30.02,29.94,9,2,16,0.00
2013-6-20,94.9,80.5,72.9,76.0,73.4,71.0,97,81,48,30.08,29.98,8,1,16,0.31
2013-6-21,91.8,76.5,71.0,75.0,72.1,70.0,99,88,57,30.11,30.04,10,1,25,0.06
2013-6-22,90.7,77.9,70.5,77.0,73.0,69.0,98,86,55,30.11,30.06,5,1,13,0.01
2013-6-23,90.2,80.0,72.8,77.0,74.5,72.0,98,84,56,30.14,30.07,8,1,11,0.05
2013-6-24,92.3,82.5,74.2,77.0,74.2,72.0,97,77,51,30.18,30.06,11,2,14,0.00
2013-6-25,93.3,82.5,74.0,77.0,73.3,69.0,97,75,46,30.14,30.02,5,1,11,0.00
2013-6-26,93.6,80.6,74.5,78.0,74.5,71.0,95,83,52,30.07,29.99,6,2,18,0.13
2013-6-27,92.4,81.0,71.9,76.0,73.7,71.0,96,80,57,30.03,29.92,8,2,14,0.00
2013-6-28,90.1,81.8,76.2,78.0,75.3,70.0,93,81,58,29.95,29.82,13,3,18,0.01
2013-6-29,88.2,80.3,74.9,78.0,75.4,73.0,95,85,63,29.86,29.77,14,3,17,0.24
2013-6-30,84.2,78.2,75.8,79.0,74.8,73.0,95,89,77,29.87,29.80,16,3,21,0.14
2013-7-1,82.9,76.8,73.2,76.0,73.7,71.0,95,90,77,30.02,29.84,8,2,21,0.31
2013-7-2,86.1,77.4,72.4,79.0,74.2,71.0,98,90,74,30.09,29.97,9,2,15,0.02
2013-7-3,89.7,77.7,73.3,78.0,74.5,72.0,97,90,67,30.12,30.05,8,1,11,0.33
2013-7-4,91.2,78.4,72.7,77.0,73.3,70.0,97,86,58,30.15,30.07,12,2,18,0.05
2013-7-5,89.0,79.8,71.9,77.0,73.9,71.0,97,83,58,30.15,30.05,8,2,16,0.06
2013-7-6,90.7,80.8,74.1,76.0,74.1,72.0,96,81,56,30.12,30.03,10,2,15,0.00
2013-7-7,90.6,82.4,75.4,77.0,74.6,73.0,95,78,57,30.13,30.03,7,2,13,0.00
2013-7-8,91.5,81.7,74.8,77.0,74.6,72.0,97,80,55,30.16,30.07,5,1,12,0.00
2013-7-9,91.5,82.2,73.6,76.0,72.8,68.0,97,75,49,30.16,30.05,8,1,11,0.00
2013-7-10,91.9,79.7,72.2,77.0,73.3,70.0,97,82,56,30.09,29.95,6,1,13,1.66
2013-7-11,92.6,80.6,75.2,76.0,74.1,71.0,95,82,50,30.02,29.89,8,1,16,0.02
2013-7-12,86.4,79.6,76.1,78.0,74.9,73.0,93,85,74,29.94,29.88,7,1,11,0.06
2013-7-13,92.4,78.9,73.3,76.0,73.7,72.0,96,85,53,29.99,29.89,13,1,16,0.14
2013-7-14,89.5,77.2,72.8,77.0,73.7,72.0,96,89,64,30.09,29.97,6,1,13,0.20
2013-7-15,86.3,76.7,71.0,78.0,73.5,70.0,98,90,68,30.12,30.02,8,1,12,1.05
2013-7-16,88.7,79.2,73.7,76.0,73.7,72.0,96,84,61,30.16,30.10,11,2,17,0.05
2013-7-17,89.9,80.2,74.9,77.0,74.3,72.0,96,83,59,30.17,30.08,8,2,15,0.01
2013-7-18,87.6,78.7,73.5,76.0,73.8,71.0,97,85,65,30.14,30.05,13,1,17,0.04
2013-7-19,89.1,76.8,72.2,76.0,73.2,71.0,97,89,65,30.15,30.04,8,1,15,1.08
2013-7-20,90.0,77.7,73.2,79.0,74.5,72.0,97,90,65,30.11,30.01,7,1,15,0.37
2013-7-21,92.6,78.9,72.5,80.0,74.9,71.0,98,88,59,30.13,30.03,5,1,19,0.02
2013-7-22,88.8,78.3,74.0,79.0,75.0,72.0,97,90,69,30.12,30.06,7,1,23,0.48
2013-7-23,82.9,76.4,73.8,78.0,74.4,72.0,97,93,83,30.09,29.96,11,2,15,0.23
2013-7-24,85.9,78.7,72.3,78.0,75.7,71.0,97,90,78,29.99,29.87,10,3,18,1.02
2013-7-25,84.3,79.3,75.8,78.0,74.9,72.0,93,86,74,29.98,29.86,8,2,16,0.05
2013-7-26,94.9,81.4,74.1,78.0,75.3,71.0,98,84,54,30.01,29.94,21,1,30,0.56
2013-7-27,93.8,82.1,75.0,79.0,75.6,73.0,98,82,53,30.01,29.89,7,1,12,0.01
2013-7-28,90.7,79.1,73.4,78.0,74.7,71.0,97,87,63,30.07,29.94,6,1,15,0.19
2013-7-29,94.0,80.3,72.8,78.0,74.6,72.0,98,84,54,30.16,30.03,4,1,12,0.00
2013-7-30,94.5,84.2,75.4,78.0,75.2,73.0,95,76,50,30.18,30.07,5,1,10,0.00
2013-7-31,94.0,83.6,72.3,78.0,75.9,70.0,95,79,53,30.14,30.00,16,1,28,2.15
2013-8-5,92.4,77.4,76.6,76.4,74.6,-99.9,95,92,58,30.00,29.90,10,-2,12,0.02
2013-8-6,93.5,77.0,74.0,79.0,74.3,72.8,97,92,61,29.98,29.89,7,0,14,0.04
2013-8-7,89.1,80.7,76.7,79.0,76.9,76.0,97,88,68,29.98,29.92,4,1,13,0.00
2013-8-8,93.9,83.0,76.7,79.0,75.9,71.0,94,80,57,30.05,29.95,7,2,21,0.01
2013-8-9,91.4,81.0,75.9,79.0,75.6,74.0,95,84,59,30.08,29.98,9,1,11,0.04
2013-8-10,94.9,83.4,73.6,79.0,75.2,72.0,95,77,52,30.14,30.04,9,1,11,0.01
2013-8-11,95.2,84.6,76.8,79.0,75.7,72.0,96,76,47,30.16,30.06,5,1,10,0.00
2013-8-12,94.2,84.5,75.5,79.0,75.9,74.0,96,76,56,30.13,30.00,8,1,8,0.00
2013-8-13,95.3,83.9,77.5,78.0,75.6,72.0,92,77,47,30.05,29.94,5,2,9,0.00
2013-8-14,95.4,82.9,76.4,79.0,75.7,73.0,93,80,53,30.01,29.89,10,2,16,0.07
2013-8-15,94.3,82.6,76.5,79.0,74.9,72.0,92,78,52,30.04,29.92,8,1,11,0.00
2013-8-16,91.8,83.4,77.9,79.0,76.0,73.0,91,79,58,30.06,29.96,5,2,13,0.00
2013-8-17,93.7,81.0,74.6,80.0,76.1,73.0,96,86,61,30.11,29.97,23,1,23,0.28
2013-8-18,91.1,80.4,74.6,79.0,76.0,73.0,97,88,59,30.11,30.01,11,1,21,0.32
2013-8-19,89.8,80.0,74.5,80.0,75.9,73.6,98,88,66,30.09,29.98,8,1,10,0.01
2013-8-20,92.9,83.2,75.6,79.0,75.8,73.0,97,80,54,30.11,29.99,6,1,14,0.00
2013-8-21,90.6,79.0,75.1,79.0,75.7,73.0,96,90,66,30.12,30.05,8,2,16,0.10
2013-8-22,91.5,78.9,74.3,80.0,75.8,73.0,96,91,63,30.10,30.00,6,1,16,0.14
2013-8-23,90.8,77.6,71.0,79.0,75.2,70.0,97,92,66,30.04,29.97,5,1,12,1.78
2013-8-24,90.0,78.1,73.8,79.0,75.2,73.0,99,91,68,30.13,30.01,7,1,15,0.14
2013-8-25,88.3,78.0,73.6,78.0,75.0,73.0,98,91,70,30.18,30.09,6,1,13,1.07
2013-8-26,88.1,78.6,73.5,77.0,74.3,72.0,97,87,67,30.16,30.04,8,2,18,0.33
2013-8-27,87.5,78.9,72.1,76.0,72.2,69.0,98,81,60,30.09,30.00,5,1,14,0.13
2013-8-28,91.0,80.3,71.4,75.0,70.6,69.0,95,74,49,30.07,29.98,5,1,8,0.00
2013-8-29,94.3,82.6,72.5,76.0,72.7,70.0,95,74,47,30.05,29.91,7,1,11,0.22
2013-8-30,94.7,82.9,73.5,78.0,73.8,71.0,96,76,48,29.99,29.87,8,1,15,0.00
2013-8-31,89.4,80.9,75.2,78.0,74.8,70.0,96,82,64,29.97,29.88,6,1,24,0.35
2013-9-1,92.5,81.5,74.4,77.0,73.9,72.0,94,79,55,30.00,29.89,22,2,22,0.06
2013-9-2,93.8,81.8,72.9,77.0,74.2,72.0,96,79,51,30.02,29.91,5,1,11,0.01
2013-9-3,91.7,82.1,74.7,78.0,75.4,72.0,95,81,58,30.02,29.91,8,2,19,0.46
2013-9-4,94.4,81.8,74.6,79.0,75.3,71.0,96,82,55,30.09,29.98,5,1,14,0.00
2013-9-5,94.4,82.5,72.9,78.0,73.8,70.0,96,77,50,30.11,30.00,6,1,7,0.00
2013-9-6,94.2,79.1,72.0,79.0,74.6,70.0,97,87,54,30.06,29.97,11,1,21,0.47
2013-9-7,88.5,77.3,71.4,77.0,72.9,71.0,98,87,61,30.03,29.94,5,1,14,0.15
2013-9-8,89.1,79.6,71.8,76.0,72.4,71.0,97,80,59,29.99,29.89,6,1,12,0.01
2013-9-9,90.8,79.8,70.6,74.0,70.8,67.0,94,76,47,30.05,29.95,5,1,11,0.00
2013-9-10,90.0,80.0,73.5,75.0,71.9,68.0,93,77,52,30.11,30.02,10,2,16,0.00
2013-9-11,89.9,80.9,74.0,76.0,73.2,72.0,95,79,58,30.10,30.00,6,2,13,0.00
2013-9-12,90.1,79.4,73.4,76.0,73.8,72.0,96,84,61,30.04,29.89,6,1,11,0.07
2013-9-13,93.4,80.9,72.3,76.0,73.1,70.0,97,79,47,29.92,29.79,6,1,9,0.01
2013-9-14,93.2,83.1,74.5,76.0,74.0,70.0,96,76,48,29.99,29.84,5,1,10,0.00
2013-9-15,91.1,82.1,75.8,78.0,75.3,73.0,95,81,58,30.09,29.98,8,1,14,0.00
2013-9-16,91.7,81.3,73.1,76.0,74.0,71.0,96,80,53,30.10,29.98,6,1,11,0.00
2013-9-17,89.3,80.5,72.9,77.0,73.6,71.0,96,80,60,30.07,29.96,8,2,14,0.00
2013-9-18,88.7,79.4,74.2,76.0,73.2,71.0,92,82,60,30.06,29.99,10,2,16,0.00
2013-9-19,88.9,78.3,72.9,75.0,72.8,70.0,95,84,59,30.07,29.99,10,1,15,0.08
2013-9-20,87.6,78.1,69.5,73.0,70.0,67.0,93,77,58,30.05,29.92,7,1,9,0.01
2013-9-21,90.1,79.7,69.8,74.0,70.3,66.0,96,75,46,29.95,29.75,4,0,8,0.00
2013-9-22,88.5,79.0,75.4,77.0,74.4,72.0,96,86,65,29.86,29.75,9,1,16,0.17
2013-9-23,83.9,76.4,73.2,78.0,74.5,72.0,97,94,81,29.96,29.84,7,1,14,0.76
2013-9-24,84.2,76.4,71.8,77.0,74.1,70.0,97,92,75,29.96,29.83,6,2,15,0.37
2013-9-25,82.5,76.5,72.7,75.0,73.0,70.0,96,89,75,29.85,29.78,12,3,18,0.04
2013-9-26,88.7,80.1,71.7,78.0,73.2,67.0,96,81,48,29.88,29.77,10,2,17,0.02
2013-9-27,79.3,73.6,68.9,74.0,70.4,68.0,96,90,81,29.98,29.86,5,2,15,0.00
2013-9-28,81.7,74.9,69.7,75.0,71.0,69.0,97,88,74,30.03,29.93,9,2,13,0.00
2013-9-29,86.8,76.0,68.8,74.0,69.6,67.0,96,82,57,30.01,29.91,7,1,12,0.00
2013-9-30,87.3,76.8,69.7,74.0,70.3,68.0,95,81,56,30.02,29.93,5,1,13,0.01
2013-10-1,87.4,77.8,72.2,75.0,71.0,68.0,91,80,65,30.09,29.99,7,1,13,0.00
2013-10-2,87.0,76.9,69.2,72.0,68.6,66.0,91,77,58,30.08,30.01,7,1,11,0.00
2013-10-3,88.4,77.9,68.0,74.0,70.3,66.0,95,78,56,30.09,30.00,7,1,10,0.00
2013-10-4,90.6,79.7,71.9,75.0,71.7,69.0,96,78,50,30.10,29.99,5,1,11,0.00
2013-10-5,88.8,78.3,69.5,75.0,71.7,68.0,97,81,59,30.07,29.97,5,1,14,0.00
2013-10-6,91.3,79.1,71.9,76.0,72.4,70.0,97,82,52,30.00,29.86,8,1,12,0.01
2013-10-7,82.3,76.6,74.1,76.0,73.9,72.0,96,91,80,29.89,29.74,9,2,15,0.24
2013-10-8,84.6,76.5,72.1,76.0,73.3,70.0,96,90,73,29.97,29.77,7,2,16,0.16
2013-10-9,77.2,70.4,66.6,70.0,67.0,65.0,94,89,76,30.06,29.95,7,2,12,0.00
2013-10-10,84.5,73.1,63.0,69.0,65.4,62.0,95,79,51,30.07,29.98,6,1,9,0.01
2013-10-11,85.7,74.1,64.9,70.0,66.1,63.0,98,78,49,30.06,29.95,7,0,8,0.00
2013-10-12,85.3,74.6,63.7,69.0,63.9,60.0,96,72,44,30.06,29.97,8,1,12,0.01
2013-10-13,85.3,75.3,64.9,68.0,64.4,60.0,96,71,44,30.10,30.00,5,1,9,0.00
2013-10-14,84.7,73.8,66.7,69.0,67.3,65.0,96,81,56,30.06,29.95,8,2,12,0.00
2013-10-15,77.2,72.3,67.2,71.0,69.0,65.0,95,89,80,30.01,29.91,5,2,10,0.00
2013-10-16,86.3,76.1,69.7,72.0,69.7,66.0,96,82,53,29.99,29.90,6,1,8,0.00
2013-10-17,88.7,77.7,69.5,73.0,70.1,68.0,97,80,50,29.99,29.89,6,1,10,0.00
2013-10-18,90.3,79.6,70.7,75.0,71.3,68.0,97,78,50,30.00,29.89,7,1,9,0.00
2013-10-19,89.6,80.0,72.7,75.0,73.1,71.0,95,80,57,29.96,29.86,5,1,13,0.00
2013-10-20,85.3,77.9,72.4,74.0,72.4,69.0,95,84,67,29.98,29.87,6,1,10,0.00
2013-10-21,91.2,78.5,71.0,77.0,73.1,69.0,96,84,57,30.01,29.90,8,1,10,0.01
2013-10-22,89.3,78.8,73.0,76.0,72.4,70.0,96,82,54,29.96,29.82,11,2,16,0.01
2013-10-23,79.9,72.8,65.4,71.0,62.3,52.0,95,72,39,30.03,29.81,7,2,15,0.03
2013-10-24,71.9,63.4,57.2,57.0,51.9,48.0,87,67,51,30.18,30.03,4,1,8,0.00
2013-10-25,79.8,65.9,54.2,59.0,54.8,52.0,95,71,41,30.27,30.16,7,1,11,0.00
2013-10-26,78.0,65.6,55.3,57.0,54.1,51.0,89,69,43,30.23,30.11,5,1,10,0.00
2013-10-27,77.6,65.5,55.7,59.0,54.5,48.0,95,71,36,30.16,30.07,4,1,10,0.01
2013-10-28,83.4,69.0,56.6,65.0,59.8,54.0,96,75,44,30.21,30.12,7,1,11,0.00
2013-10-29,82.2,71.7,63.6,67.0,64.5,62.0,95,79,58,30.25,30.16,8,2,12,0.00
2013-10-30,82.4,72.3,64.8,69.0,65.8,63.0,95,81,56,30.25,30.12,5,1,9,0.01
2013-10-31,85.2,75.0,66.4,70.0,67.1,64.0,96,78,50,30.15,29.98,6,1,12,0.00
2013-11-1,87.1,77.7,71.4,73.0,69.5,65.0,95,77,50,30.01,29.87,10,2,19,0.00
2013-11-2,75.6,68.6,60.4,72.0,66.2,59.0,96,92,82,29.99,29.80,14,2,16,0.54
2013-11-3,74.2,63.3,53.9,61.0,53.9,48.0,98,74,43,30.15,29.98,8,2,14,0.01
2013-11-4,77.9,68.0,59.4,66.0,59.9,54.0,93,76,48,30.21,30.12,11,2,15,0.00
2013-11-5,81.6,72.0,64.8,69.0,66.2,63.0,95,83,58,30.18,30.11,8,2,16,0.08
2013-11-6,80.8,71.8,65.2,71.0,67.1,64.0,95,85,63,30.15,30.05,5,1,10,0.00
2013-11-7,77.6,70.8,66.2,70.0,67.7,65.0,97,90,73,30.07,29.97,4,1,7,0.01
2013-11-8,73.5,66.3,59.7,65.0,60.9,52.0,96,83,70,30.15,30.01,9,2,15,0.00
2013-11-9,78.7,68.4,59.4,65.0,61.3,57.0,92,79,61,30.20,30.13,7,1,13,0.00
2013-11-10,80.7,70.0,62.5,68.0,64.3,61.0,96,83,59,30.19,30.10,6,1,10,0.00
2013-11-11,80.5,70.0,62.5,68.0,64.1,61.0,95,82,59,30.19,30.09,7,1,10,0.01
2013-11-12,75.6,66.9,62.0,69.0,63.6,58.0,97,89,75,30.13,30.02,5,1,7,0.02
2013-11-13,64.9,58.2,53.3,58.0,49.8,46.0,83,74,61,30.36,30.10,10,4,24,0.01
2013-11-14,73.3,59.9,47.6,58.0,53.0,46.0,95,79,58,30.34,30.21,8,1,14,0.00
2013-11-15,70.6,64.8,58.8,65.0,61.5,56.0,95,89,76,30.22,30.10,4,1,10,0.15
2013-11-16,76.1,68.5,64.4,71.0,66.8,63.0,97,94,83,30.16,30.06,4,1,7,0.70
2013-11-17,84.1,74.6,67.5,73.0,69.8,67.0,97,86,65,30.10,30.00,6,1,8,0.00
2013-11-18,80.7,73.6,67.2,73.0,69.2,66.0,97,87,71,30.04,29.92,5,1,9,0.00
2013-11-19,74.9,68.7,62.7,69.0,62.6,55.0,97,82,60,30.00,29.89,7,2,12,0.00
2013-11-20,77.8,69.9,63.3,71.0,66.2,61.0,94,88,75,30.13,29.99,7,1,10,0.02
2013-11-21,77.2,70.8,67.3,71.0,68.3,66.0,96,91,79,30.21,30.12,8,2,12,0.04
2013-11-22,79.5,72.1,65.7,71.0,67.8,64.0,96,87,69,30.22,30.12,7,1,14,0.04
2013-11-23,83.0,71.8,63.7,69.0,65.2,63.0,97,81,55,30.13,30.01,5,1,7,0.01
2013-11-24,68.5,63.0,57.7,65.0,56.8,51.0,90,80,72,30.27,30.05,13,3,20,0.00
2013-11-25,73.0,66.3,59.5,60.0,56.6,53.0,86,72,58,30.28,30.11,11,3,17,0.00
2013-11-26,80.9,72.3,64.2,73.0,68.3,60.0,96,87,74,30.10,29.75,9,3,17,0.27
2013-11-27,72.5,59.9,41.6,71.0,54.8,36.0,96,83,69,30.23,29.70,13,4,22,0.46
2013-11-28,62.3,48.4,35.2,51.0,41.8,31.0,88,78,63,30.38,30.23,7,2,12,0.00
2013-11-29,69.6,57.5,46.9,60.0,52.5,45.0,95,84,66,30.41,30.31,10,3,14,0.00
2013-11-30,74.9,63.3,55.6,64.0,59.1,53.0,96,87,64,30.34,30.21,7,2,15,0.00
2013-12-1,73.3,64.0,59.7,65.0,61.1,59.0,97,91,73,30.22,30.00,5,1,9,0.00
2013-12-2,73.3,62.4,55.6,62.0,57.8,54.0,98,86,54,29.99,29.83,7,1,11,0.00
2013-12-3,76.5,64.3,53.7,63.0,58.5,53.0,97,83,61,30.00,29.89,5,1,9,0.01
2013-12-4,81.1,69.2,60.9,70.0,64.2,60.0,96,85,60,30.10,29.98,4,0,6,0.00
2013-12-5,81.4,71.2,62.4,69.0,65.7,61.0,97,84,63,30.19,30.09,6,0,11,0.01
2013-12-6,83.2,73.2,65.1,72.0,67.9,64.0,97,85,64,30.19,30.09,6,1,11,0.00
2013-12-7,83.2,72.8,65.5,70.0,66.3,63.0,96,82,52,30.25,30.14,3,0,10,0.00
2013-12-8,83.7,72.6,63.7,71.0,66.8,63.0,97,83,55,30.25,30.11,10,1,11,0.01
2013-12-9,82.6,72.8,65.6,72.0,67.8,65.0,97,85,61,30.20,30.09,7,1,13,0.00
2013-12-10,84.1,72.8,63.4,70.0,65.9,62.0,96,80,56,30.21,30.07,9,2,17,0.00
2013-12-11,80.3,66.6,56.8,69.0,60.6,53.0,92,81,64,30.27,30.16,7,2,13,0.00
2013-12-12,67.0,59.5,50.8,58.0,46.9,29.0,94,67,29,30.35,30.22,8,2,13,0.00
2013-12-13,73.0,59.9,47.9,57.0,51.9,43.0,94,76,52,30.30,30.15,8,1,14,0.00
2013-12-14,80.6,70.8,61.4,70.0,65.3,56.0,90,83,70,30.14,29.93,9,2,14,0.00
2013-12-15,73.2,65.6,58.3,70.0,61.6,54.0,96,87,76,30.14,29.86,12,2,16,0.56
2013-12-16,62.2,51.7,43.3,54.0,44.3,35.0,92,77,39,30.25,30.14,8,2,14,0.00
2013-12-17,69.2,53.7,42.5,51.0,46.1,40.6,95,78,49,30.28,30.17,5,1,8,0.01
2013-12-18,67.9,54.7,44.3,49.0,44.7,40.0,93,71,45,30.31,30.22,6,1,11,0.00
2013-12-19,73.8,59.0,43.1,59.0,51.3,41.0,95,77,48,30.31,30.19,6,1,7,0.00
2013-12-20,81.4,67.2,54.7,64.0,59.8,53.0,96,79,54,30.24,30.12,6,1,8,0.00
2013-12-21,83.0,73.4,64.9,71.0,67.7,62.0,95,83,64,30.16,30.04,7,2,13,0.00
2013-12-22,82.6,74.1,67.6,72.0,68.9,67.0,96,84,68,30.16,30.08,5,1,12,0.01
2013-12-23,84.4,74.7,67.0,73.0,69.2,66.0,97,84,59,30.18,30.08,8,2,16,0.01
2013-12-24,72.1,60.9,48.3,70.0,50.5,30.0,96,72,31,30.29,30.10,8,3,15,0.14
2013-12-25,71.5,56.5,42.9,59.0,49.8,38.0,94,79,61,30.29,30.19,5,1,10,0.00
2013-12-26,69.6,58.1,55.3,62.0,55.9,54.0,96,93,78,30.27,30.17,4,1,11,0.00
2013-12-27,66.7,64.1,62.2,63.0,61.3,60.0,93,90,88,30.28,30.20,10,3,14,0.00
2013-12-28,74.8,68.3,62.5,70.0,66.3,61.0,97,93,85,30.26,30.02,8,2,12,0.08
2013-12-29,74.5,70.4,62.3,72.0,68.4,61.0,96,93,88,30.03,29.89,9,2,14,0.22
2013-12-30,68.1,60.3,54.8,61.0,55.1,50.0,97,84,55,30.22,30.01,7,1,10,0.00
2013-12-31,67.3,59.8,54.3,54.0,51.7,48.0,92,76,51,30.33,30.20,7,2,10,0.00
2014-1-1,62.6,59.2,56.4,61.0,57.3,53.0,97,93,85,30.29,30.09,7,2,10,0.10
2014-1-2,76.6,65.3,57.3,71.0,63.9,54.0,98,95,82,30.08,29.84,10,2,21,0.02